User: anonymous   Login
Location: Donald C. Martin Observatory
(38.3885°N, 82.3916°W)
Time: 22:50:57
(UTC-04:00)
Language:

Cosmos 1484 Rocket - Orbit

View from above orbital plane
View from above orbital plane
View from above satellite
View from above satellite

Ground track
Ground track

The orbit data is extracted from the following two-line orbital elements,

1 14208U 83075B   15186.13591216  .00001572  00000-0  10127-3 0  9996
2 14208 097.3835 213.9987 0042382 069.4669 291.1100 15.09027125739915
Epoch (UTC): 05 July 2015 03:15:42
Eccentricity: 0.0042382
inclination: 97.3835°
perigee height: 510 km
apogee height: 568 km
right ascension of ascending node: 213.9987°
argument of perigee: 69.4669°
revolutions per day: 15.09027125
mean anomaly at epoch: 291.1100°
orbit number at epoch: 73991

The dashed part of the orbit path shows where the satellite is in the earth's shadow,  

DLR